Regional Weather Roundup
Issued by NWS

Home | Current Version | Previous Version | Graphics & Text | Print | Product List | Glossary On
Versions: 1 2 3 4 5 6 7 8 9 10 11 12 13 14 15 16 17 18 19 20 21 22 23 24 25 26 27 28 29 30 31 32 33 34 35 36 37 38 39 40 41 42 43 44 45 46 47 48 49 50
000
ASUS43 KFSD 280910
RWRSD

WEATHER ROUNDUP FOR SOUTH DAKOTA
NATIONAL WEATHER SERVICE SIOUX FALLS SD
400 AM CDT TUE APR 28 2015

NOTE: "FAIR" INDICATES FEW OR NO CLOUDS BELOW 12,000 FEET WITH NO
SIGNIFICANT WEATHER AND/OR OBSTRUCTIONS TO VISIBILITY.


SDZ001>005-009-010-012>017-281000-
NORTHWEST AND NORTH CENTRAL SOUTH DAKOTA

CITY           SKY/WX    TMP DP  RH WIND       PRES   REMARKS
BUFFALO          N/A     32  30  92 W6        30.27S WCI  26
FAITH            N/A     43  37  79 W5        30.32S
MOBRIDGE       MOCLDY    41  38  89 N3        30.29S
$$

SDZ012>016-024>037-041>051-057-063-072>074-281000-
SOUTHWEST AND SOUTH CENTRAL SOUTH DAKOTA

CITY           SKY/WX    TMP DP  RH WIND       PRES   REMARKS
RAPID CTY ARPT CLEAR     34  32  92 NW5       30.34S WCI  30
PIERRE         MOCLDY    44  41  89 NW9       30.32R
CUSTER         CLOUDY    38  37  97 W6        30.32S FOG
ELLSWORTH AFB  PTCLDY    34  33  96 NW5       30.33S WCI  29
PHILIP         MOCLDY    40  37  89 NW8       30.33S
PINE RIDGE     CLOUDY    44  40  85 CALM      30.34S
SPEARFISH      FAIR      32  32 100 S7        30.34S WCI  26
WINNER         FAIR      43  39  86 NW8       30.31S
$$

SDZ004>011-016>023-039-040-281000-
NORTHEAST SOUTH DAKOTA

CITY           SKY/WX    TMP DP  RH WIND       PRES   REMARKS
ABERDEEN       CLOUDY    48  43  82 N13       30.28S
WATERTOWN      CLOUDY    48  41  76 NE7       30.21F
BROOKINGS      PTCLDY    39  34  81 NW6       30.22R
SISSETON         N/A     48  45  89 N16       30.22F
$$

SDZ017-020-022-023-036>040-048>070-281000-
SOUTHEAST SOUTH DAKOTA

CITY           SKY/WX    TMP DP  RH WIND       PRES   REMARKS
SIOUX FALLS    CLEAR     39  31  72 NE7       30.20S
HURON          MOCLDY    48  43  82 NW14      30.25S
CHAMBERLAIN    MOCLDY    45  41  86 NW13      30.29S
MITCHELL       MOCLDY    46  42  86 NW15      30.25R
YANKTON        CLEAR     46  39  76 W13       30.21S
$$

ABBREVIATIONS USED IN REMARKS
   TC - TEMPERATURE IN CELSIUS
  WCI - WIND CHILL INDEX
   HX - HEAT INDEX
  VSB - VISIBILITY




USA.gov is the U.S. government's official web portal to all federal, state and local government web resources and services.